Погода в Мидделбурге

ЮАР     25°45′49″S   29°27′21″E
темп.,
°C
ветер,
м/с
пор.,
м/с
влажн.,
%
обл.,
%
осадки,
мм/ч
давл.,
гПа
погр.,
м
17 августа, ср
ср1723:00+10зсз223499 0.0 102111
02:00+9зсз113883 0.0 102010
05:00+8ссз114499 0.0 102010
08:00+12сз1236100 0.0 102094
11:00+19зсз572089 0.0 1017825
14:00+23зсз791386 0.0 10131619
17:00+22зсз681663 0.0 1012674
20:00+16зсз33240 0.0 101518
18 августа, чт
чт1823:00+15ссз33260 0.0 101514
02:00+13ссз22280 0.0 101411
05:00+12с33310 0.0 101419
08:00+16с39245 0.0 1014266
11:00+23сз814145 0.0 10121658
14:00+25сз1015134 0.0 10082566
17:00+23зсз9131219 0.0 10081314
20:00+18зсз4813100 0.0 1010111
19 августа, пт
пт1923:00+15зсз2216100 0.0 101113
02:00+11ю332499 0.0 101223
05:00+9ю3335100 0.0 101330
08:00+10ююз573635 0.0 1015298
11:00+15з81127100 0.0 10141648
14:00+14юз9112089 0.0 10142004
17:00+13юз913220 0.0 10161934
20:00+10ююз511275 0.0 1019347
20 августа, сб
сб2023:00+7з113850 0.0 102111
02:00+6юз484636 0.0 1021132
05:00+5ююз413566 0.0 1023317
08:00+8юз513455 0.0 1023595
11:00+16зюз811185 0.0 10201125
14:00+19юз810100 0.0 10171755
17:00+17ююз78110 0.0 10191297
20:00+11ююз35200 0.0 102459
21 августа, вс
вс2123:00+9ю48270 0.0 1025137
02:00+6юв34300 0.0 102656
05:00+5юв22370 0.0 102718
08:00+8всв11380 0.0 1028143
11:00+15ссз45240 0.0 10261048
14:00+18ссз66260 0.0 10231523
17:00+16сз55320 0.0 10231396
20:00+12ссв22450 0.0 102512